Regional Weather Roundup
Issued by NWS Albany, NY

Home | Current Version | Previous Version | Graphics & Text | Print | Product List | Glossary Off
Versions: 1 2 3 4 5 6 7 8 9 10 11 12 13 14 15 16 17 18 19 20 21 22 23 24 25 26 27 28 29 30 31 32 33 34 35 36 37 38 39 40 41 42 43 44 45 46 47 48 49

000
ASUS41 KALY 280710
RWRALY

NEW YORK STATE HOURLY WEATHER ROUNDUP
NATIONAL WEATHER SERVICE ALBANY NY
300 AM EDT FRI AUG 28 2015

NOTE: "FAIR" INDICATES FEW OR NO CLOUDS BELOW 12,000 FEET WITH NO
SIGNIFICANT WEATHER AND/OR NO OBSTRUCTIONS TO VISIBILITY.

NYZ032-033-038>043-046>054-057>066-NYZ062>081-280800-
EAST


CITY           SKY/WX    TMP DP  RH WIND       PRES   REMARKS
ALBANY         PTCLDY    58  52  80 CALM      30.14R
GLENS FALLS    CLEAR     55  52  89 S3        30.13R
POUGHKEEPSIE   CLEAR     56  53  90 CALM      30.14R
NEWBURGH       PTCLDY    59  57  94 W7        30.15
MONTGOMERY     CLEAR     54  52  93 CALM      30.15S
WHITE PLAINS   MOCLDY    62  53  72 NW5       30.12S
ISLIP          CLEAR     64  55  72 N6        30.10S
NEW YORK CITY  PTCLDY    68  55  63 NW3       30.12S
CENTRAL PARK   CLEAR     67  53  61 W5        30.16S
$$

NYZ005>009-017-018-044>046-055-056-280800-
CENTRAL


CITY           SKY/WX    TMP DP  RH WIND       PRES   REMARKS
FULTON         CLOUDY    60  55  83 S3        30.15F
SYRACUSE       PTCLDY    54  53  97 CALM      30.16S
ROME           CLEAR     52  51  97 CALM      30.18S
ELMIRA         CLOUDY    51  51 100 CALM      30.18S
BINGHAMTON     MOCLDY    55  53  93 W3        30.18S
MONTICELLO     CLEAR     54  52  94 NW5       30.19S
$$

NYZ026>034-041>043-280800-
NORTH


CITY           SKY/WX    TMP DP  RH WIND       PRES   REMARKS
WATERTOWN      CLOUDY    55  53  93 NE5       30.15R
FORT DRUM      NOT AVBL
MASSENA        CLOUDY    54  52  93 CALM      30.15S
SARANAC LAKE   CLOUDY    55  53  93 CALM      30.15S
PLATTSBURGH    CLEAR     58  54  86 W3        30.12R
$$

NYZ001>004-010>016-019>021-280800-
WEST


CITY           SKY/WX    TMP DP  RH WIND       PRES   REMARKS
NIAGARA FALLS  CLEAR     53  51  93 CALM      30.16F
BUFFALO        PTCLDY    55  52  89 SE3       30.16F
DUNKIRK        CLOUDY    62  56  80 S7        30.16F
JAMESTOWN      CLOUDY    52  48  87 S3        30.18F VSB 1/4
WELLSVILLE     FOG       50  48  93 CALM      30.22S VSB<1/4
ROCHESTER      PTCLDY    53  50  89 W3        30.17F
PENN YAN       CLEAR     55  52  89 SW5       30.19S
$$

             KEY
       WCI = WIND CHILL INDEX
       VSB = VISIBILITY
       HX  = HEAT INDEX
$$



USA.gov is the U.S. government's official web portal to all federal, state and local government web resources and services.